Jackson, MS

10:29 PM CDT on October 20, 2017 (GMT -0500)
Jackson-Evers International

Weather History for KJAN - November, 2014

Change the Weather History Date:

Tuesday, November 18, 2014

  Actual Average Record
Temperature  
Mean Temperature 35 °F 55 °F  
Max Temperature 45 °F 67 °F 87 °F (1930)
Min Temperature 25 °F 43 °F 20 °F (1959)
Degree Days  
Heating Degree Days 30 11  
Month to date heating degree days 285 151  
Since 1 July heating degree days 348 258  
Cooling Degree Days 0 1  
Month to date cooling degree days 2 19  
Year to date cooling degree days 2280 2250  
Moisture  
Dew Point 17 °F    
Average Humidity 56    
Maximum Humidity 84    
Minimum Humidity 27    
Precipitation  
Precipitation 0.00 in 0.17 in 2.56 in (1948)
Month to date precipitation 3.54 2.65  
Year to date precipitation 51.92 46.88  
Sea Level Pressure  
Sea Level Pressure 30.45 in    
Wind  
Wind Speed 6 mph (NNE)    
Max Wind Speed 14 mph    
Max Gust Speed 19 mph    
Visibility 10 miles    
Events      
T = Trace of Precipitation, MM = Missing Value Source: NWS Daily Summary

Daily Weather History Graph

Daily Weather History Graph

Search for Another Location

Airport or City:

Trip Planner

Search our weather history database for the weather conditions in past years. The results will help you decide how hot, cold, wet, or windy it might be!

Date:

Astronomy

Nov. 18, 2014 Rise Set
Actual Time 6:32 AM CST 4:58 PM CST
Civil Twilight 6:06 AM CST 5:24 PM CST
Nautical Twilight 5:36 AM CST 5:54 PM CST
Astronomical Twilight 5:07 AM CST 6:23 PM CST
Moon 2:44 AM CST (11/18) 2:41 PM CST (11/18)
Length of Visible Light 11h 18m
Length of Day
10h 26m
Waning Crescent, 15% of the Moon is Illuminated
Nov 18
Waning Crescent
Nov 22
New
Nov 29
First Quarter
Dec 6
Full
Dec 14
Last Quarter

Hourly Weather History & Observations

Time (CST) Temp. Windchill Dew Point Humidity Pressure Visibility Wind Dir Wind Speed Gust Speed Precip Events Conditions
12:54 AM 30.9 °F 26.2 °F 21.9 °F 69% 30.38 in 10.0 mi NW 4.6 mph - N/A   Clear
1:54 AM 30.0 °F 23.2 °F 21.9 °F 72% 30.38 in 10.0 mi NNW 6.9 mph - N/A   Clear
2:54 AM 30.0 °F 21.1 °F 19.0 °F 64% 30.40 in 10.0 mi North 10.4 mph - N/A   Clear
3:54 AM 28.9 °F 19.8 °F 16.0 °F 58% 30.43 in 10.0 mi North 10.4 mph - N/A   Clear
4:54 AM 28.0 °F 20.0 °F 16.0 °F 61% 30.45 in 10.0 mi North 8.1 mph - N/A   Clear
5:54 AM 28.0 °F 20.8 °F 16.0 °F 61% 30.47 in 10.0 mi North 6.9 mph - N/A   Mostly Cloudy
6:54 AM 28.0 °F 20.8 °F 17.1 °F 63% 30.49 in 10.0 mi NNW 6.9 mph - N/A   Mostly Cloudy
7:54 AM 28.9 °F 21.9 °F 16.0 °F 58% 30.51 in 10.0 mi NNW 6.9 mph - N/A   Mostly Cloudy
8:54 AM 32.0 °F 26.4 °F 12.9 °F 45% 30.53 in 10.0 mi Variable 5.8 mph - N/A   Mostly Cloudy
9:54 AM 34.0 °F 25.5 °F 12.0 °F 40% 30.53 in 10.0 mi ENE 11.5 mph - N/A   Mostly Cloudy
10:54 AM 36.0 °F 29.0 °F 12.9 °F 39% 30.51 in 10.0 mi NNE 9.2 mph - N/A   Scattered Clouds
11:54 AM 37.0 °F 33.3 °F 12.0 °F 36% 30.49 in 10.0 mi NE 4.6 mph - N/A   Partly Cloudy
12:54 PM 42.1 °F 36.1 °F 12.9 °F 31% 30.47 in 10.0 mi North 10.4 mph - N/A   Partly Cloudy
1:54 PM 43.0 °F 38.2 °F 12.9 °F 30% 30.44 in 10.0 mi NNE 8.1 mph - N/A   Partly Cloudy
2:54 PM 44.1 °F 42.5 °F 12.9 °F 28% 30.43 in 10.0 mi Variable 3.5 mph - N/A   Clear
3:54 PM 44.1 °F 42.5 °F 14.0 °F 30% 30.42 in 10.0 mi NE 3.5 mph - N/A   Clear
4:54 PM 39.9 °F 37.8 °F 19.0 °F 43% 30.43 in 10.0 mi ENE 3.5 mph - N/A   Clear
5:54 PM 34.0 °F - 21.9 °F 61% 30.43 in 10.0 mi Calm Calm - N/A   Clear
6:54 PM 30.9 °F 27.5 °F 21.9 °F 69% 30.44 in 10.0 mi ESE 3.5 mph - N/A   Clear
7:54 PM 27.0 °F - 21.9 °F 81% 30.43 in 10.0 mi Calm Calm - N/A   Clear
8:54 PM 27.0 °F 21.6 °F 21.0 °F 78% 30.44 in 10.0 mi SSE 4.6 mph - N/A   Clear
9:54 PM 27.0 °F - 21.9 °F 81% 30.44 in 10.0 mi Calm Calm - N/A   Clear
10:54 PM 27.0 °F - 23.0 °F 85% 30.45 in 10.0 mi Calm Calm - N/A   Clear
11:54 PM 27.0 °F 23.0 °F 21.0 °F 78% 30.45 in 10.0 mi SSE 3.5 mph - N/A   Clear